Weather History for Freeport, IL

Change the Weather History Date:

Saturday, September 1, 2012

  Actual Average Record
Temperature  
Mean Temperature 72 °F -  
Max Temperature 79 °F 80 °F 90 °F (1973)
Min Temperature 66 °F 56 °F 46 °F (1987)
Cooling Degree Days 8    
Growing Degree Days 22 (Base 50)    
Moisture  
Dew Point 60 °F    
Average Humidity 65    
Maximum Humidity 78    
Minimum Humidity 53    
Precipitation  
Precipitation 0.00 in - - ()
Sea Level Pressure  
Sea Level Pressure 30.05 in    
Wind  
Wind Speed 10 mph (NE)    
Max Wind Speed 18 mph    
Max Gust Speed 25 mph    
Visibility 10 miles    
Events      
Averages and records for this station are not official NWS values.
T = Trace of Precipitation, MM = Missing Value Source: NWS Daily Summary

Daily Weather History Graph

Daily Weather History Graph

Search for Another Location

Airport:

Trip Planner

Search our weather history database for the weather conditions in past years. The results will help you decide how hot, cold, wet, or windy it might be!

Date:

Astronomy

Sep. 01, 2012 Rise Set
Actual Time 6:24 AM CDT 7:31 PM CDT
Civil Twilight 5:55 AM CDT 8:00 PM CDT
Nautical Twilight 5:20 AM CDT 8:34 PM CDT
Astronomical Twilight 4:44 AM CDT 9:10 PM CDT
Moon 7:45 PM CDT (9/1) 7:34 AM CDT (9/1)
Length of Visible Light 14h 04m
Length of Day
13h 07m
Full, 99% of the Moon is Illuminated
Sep 1
Full
Sep 8
Last Quarter
Sep 15
New
Sep 22
First Quarter
Sep 29
Full

Hourly Weather History & Observations

Time (CDT) Temp. Dew Point Humidity Pressure Visibility Wind Dir Wind Speed Gust Speed Precip Events Conditions
12:15 AM 71.8 °F 61.7 °F 70% 30.11 in 10.0 mi ENE 8.1 mph - N/A   Clear
12:35 AM 71.8 °F 59.0 °F 64% 30.11 in 10.0 mi ENE 5.8 mph - N/A   Scattered Clouds
12:55 AM 69.3 °F 57.7 °F 67% 30.11 in 10.0 mi NE 4.6 mph - N/A   Mostly Cloudy
1:15 AM 70.5 °F 57.6 °F 63% 30.11 in 10.0 mi ENE 4.6 mph - N/A   Overcast
1:35 AM 69.3 °F 57.4 °F 66% 30.10 in 10.0 mi ENE 6.9 mph - N/A   Mostly Cloudy
1:55 AM 68.5 °F 57.4 °F 67% 30.09 in 10.0 mi NNE 4.6 mph - N/A   Scattered Clouds
2:15 AM 68.7 °F 57.2 °F 67% 30.09 in 10.0 mi NE 3.5 mph - N/A   Clear
2:35 AM 68.2 °F 56.8 °F 67% 30.09 in 10.0 mi ENE 3.5 mph - N/A   Clear
2:55 AM 66.6 °F 56.3 °F 69% 30.09 in 10.0 mi NE 3.5 mph - N/A   Clear
3:15 AM 66.7 °F 56.3 °F 69% 30.09 in 10.0 mi NE 4.6 mph - N/A   Clear
3:35 AM 67.1 °F 56.7 °F 69% 30.09 in 10.0 mi ENE 4.6 mph - N/A   Clear
3:55 AM 66.6 °F 57.6 °F 73% 30.09 in 10.0 mi NE 6.9 mph - N/A   Clear
4:15 AM 66.6 °F 57.0 °F 71% 30.07 in 10.0 mi NNE 5.8 mph - N/A   Clear
4:35 AM 66.6 °F 57.2 °F 72% 30.07 in 10.0 mi NE 6.9 mph - N/A   Clear
4:55 AM 66.6 °F 57.2 °F 72% 30.07 in 10.0 mi NE 5.8 mph - N/A   Clear
5:15 AM 66.6 °F 57.2 °F 72% 30.06 in 10.0 mi NNE 6.9 mph - N/A   Clear
5:35 AM 67.5 °F 56.7 °F 68% 30.06 in 10.0 mi NE 8.1 mph - N/A   Scattered Clouds
5:55 AM 69.3 °F 57.4 °F 66% 30.06 in 10.0 mi NE 8.1 mph - N/A   Scattered Clouds
6:15 AM 69.4 °F 57.6 °F 66% 30.06 in 10.0 mi NE 9.2 mph - N/A   Mostly Cloudy
6:35 AM 69.3 °F 58.1 °F 68% 30.07 in 10.0 mi NE 9.2 mph - N/A   Scattered Clouds
6:55 AM 69.8 °F 59.0 °F 68% 30.07 in 10.0 mi NE 11.5 mph - N/A   Clear
7:15 AM 71.4 °F 59.5 °F 66% 30.07 in 10.0 mi NE 9.2 mph - N/A   Clear
7:35 AM 71.8 °F 58.8 °F 64% 30.08 in 10.0 mi NE 12.7 mph - N/A   Scattered Clouds
7:55 AM 71.8 °F 57.4 °F 60% 30.08 in 10.0 mi ENE 11.5 mph - N/A   Mostly Cloudy
8:15 AM 72.3 °F 57.6 °F 60% 30.08 in 10.0 mi NE 13.8 mph 17.3 mph N/A   Overcast
8:35 AM 73.0 °F 58.3 °F 60% 30.08 in 10.0 mi NE 15.0 mph - N/A   Mostly Cloudy
8:55 AM 74.3 °F 59.7 °F 60% 30.08 in 10.0 mi NE 15.0 mph - N/A   Scattered Clouds
9:15 AM 74.3 °F 59.0 °F 59% 30.08 in 10.0 mi ENE 12.7 mph - N/A   Mostly Cloudy
9:35 AM 74.3 °F 58.5 °F 58% 30.07 in 10.0 mi ENE 13.8 mph 20.7 mph N/A   Mostly Cloudy
9:55 AM 74.3 °F 57.7 °F 56% 30.08 in 10.0 mi NE 12.7 mph - N/A   Scattered Clouds
10:15 AM 74.3 °F 57.2 °F 55% 30.08 in 10.0 mi NE 18.4 mph 24.2 mph N/A   Mostly Cloudy
10:35 AM 74.3 °F 57.0 °F 55% 30.08 in 10.0 mi NE 12.7 mph 20.7 mph N/A   Mostly Cloudy
10:55 AM 75.4 °F 58.1 °F 55% 30.08 in 10.0 mi NE 17.3 mph 23.0 mph N/A   Mostly Cloudy
11:15 AM 77.2 °F 59.0 °F 53% 30.08 in 10.0 mi ENE 17.3 mph 24.2 mph N/A   Scattered Clouds
11:35 AM 77.0 °F 59.4 °F 54% 30.08 in 10.0 mi NE 12.7 mph 18.4 mph N/A   Mostly Cloudy
11:55 AM 79.3 °F 61.5 °F 54% 30.07 in 10.0 mi ENE 13.8 mph 20.7 mph N/A   Scattered Clouds
12:15 PM 79.3 °F 61.7 °F 55% 30.07 in 10.0 mi NE 13.8 mph 19.6 mph N/A   Scattered Clouds
12:35 PM 79.3 °F 62.4 °F 56% 30.06 in 10.0 mi NE 16.1 mph - N/A   Overcast
12:55 PM 79.3 °F 62.4 °F 56% 30.07 in 10.0 mi ENE 16.1 mph 21.9 mph N/A   Mostly Cloudy
1:15 PM 75.2 °F 62.6 °F 65% 30.06 in 7.0 mi East 13.8 mph 18.4 mph N/A   Overcast
1:35 PM 74.3 °F 66.4 °F 76% 30.06 in 10.0 mi ENE 8.1 mph - N/A   Overcast
1:55 PM 76.6 °F 64.8 °F 67% 30.06 in 10.0 mi NE 12.7 mph 16.1 mph N/A   Overcast
2:15 PM 78.6 °F 64.6 °F 62% 30.05 in 10.0 mi NE 18.4 mph - N/A   Overcast
2:35 PM 78.6 °F 65.7 °F 64% 30.04 in 10.0 mi NE 16.1 mph 20.7 mph N/A   Overcast
2:55 PM 75.7 °F 64.8 °F 69% 30.04 in 10.0 mi NE 15.0 mph 23.0 mph N/A   Mostly Cloudy
3:15 PM 74.3 °F 64.6 °F 72% 30.04 in 10.0 mi NE 18.4 mph - N/A   Mostly Cloudy
3:35 PM 74.5 °F 64.2 °F 70% 30.03 in 10.0 mi NE 17.3 mph 21.9 mph N/A   Mostly Cloudy
3:55 PM 77.0 °F 64.9 °F 66% 30.02 in 10.0 mi NE 13.8 mph 18.4 mph N/A   Scattered Clouds
4:15 PM 76.6 °F 64.9 °F 67% 30.01 in 10.0 mi NE 17.3 mph - N/A   Scattered Clouds
4:35 PM 76.6 °F 65.1 °F 67% 30.01 in 10.0 mi NE 16.1 mph 21.9 mph N/A   Clear
4:55 PM 76.6 °F 64.2 °F 65% 30.01 in 10.0 mi NE 16.1 mph 23.0 mph N/A   Clear
5:15 PM 75.6 °F 61.7 °F 62% 30.01 in 10.0 mi NE 16.1 mph 25.3 mph N/A   Scattered Clouds
5:35 PM 74.3 °F 61.7 °F 65% 30.01 in 10.0 mi NE 16.1 mph 21.9 mph N/A   Scattered Clouds
5:55 PM 74.3 °F 58.3 °F 57% 30.01 in 10.0 mi NE 11.5 mph 18.4 mph N/A   Scattered Clouds
6:15 PM 74.3 °F 59.0 °F 59% 30.01 in 10.0 mi NE 15.0 mph 19.6 mph N/A   Mostly Cloudy
6:35 PM 74.3 °F 59.9 °F 61% 30.01 in 10.0 mi NE 16.1 mph 24.2 mph N/A   Scattered Clouds
6:55 PM 74.3 °F 59.9 °F 61% 30.01 in 10.0 mi NE 15.0 mph 19.6 mph N/A   Scattered Clouds
7:15 PM 74.3 °F 60.1 °F 61% 30.01 in 10.0 mi NE 13.8 mph 20.7 mph N/A   Mostly Cloudy
7:35 PM 74.3 °F 59.5 °F 60% 30.01 in 10.0 mi NE 15.0 mph 18.4 mph N/A   Overcast
7:55 PM 72.9 °F 59.2 °F 62% 30.01 in 10.0 mi NE 12.7 mph - N/A   Overcast
8:15 PM 71.8 °F 59.0 °F 64% 30.01 in 10.0 mi NE 11.5 mph - N/A   Mostly Cloudy
8:35 PM 71.8 °F 59.9 °F 66% 30.02 in 10.0 mi NE 9.2 mph - N/A   Mostly Cloudy
8:55 PM 71.6 °F 59.5 °F 66% 30.01 in 10.0 mi NE 10.4 mph - N/A   Scattered Clouds
9:15 PM 69.3 °F 57.4 °F 66% 30.01 in 10.0 mi NNE 9.2 mph - N/A   Clear
9:35 PM 69.3 °F 57.4 °F 66% 30.01 in 10.0 mi NE 8.1 mph - N/A   Clear
9:55 PM 68.7 °F 57.9 °F 68% 30.01 in 10.0 mi NE 8.1 mph - N/A   Scattered Clouds
10:15 PM 67.8 °F 57.9 °F 71% 30.01 in 10.0 mi North 6.9 mph - N/A   Scattered Clouds
10:35 PM 67.3 °F 58.3 °F 73% 30.01 in 10.0 mi North 6.9 mph - N/A   Scattered Clouds
10:55 PM 67.5 °F 58.6 °F 73% 30.01 in 10.0 mi NNE 8.1 mph - N/A   Clear
11:15 PM 67.5 °F 59.4 °F 75% 30.00 in 10.0 mi NNE 8.1 mph - N/A   Clear
11:35 PM 67.8 °F 60.3 °F 77% 30.00 in 10.0 mi NNE 10.4 mph - N/A   Clear
11:55 PM 68.0 °F 60.8 °F 78% 29.99 in 10.0 mi NE 8.1 mph - N/A   Clear